Regional Weather Roundup
Issued by NWS Spokane, WA

Home | Current Version | Previous Version | Text Only | Print | Product List | Glossary On
Versions: 1 2 3 4 5 6 7 8 9 10 11 12 13 14 15 16 17 18 19 20 21 22 23 24 25 26 27 28 29 30 31 32 33 34 35 36 37 38 39 40 41 42 43 44 45 46 47 48 49 50
000
NZUS01 KOTX 271710
RWROTX
EASTERN WASHINGTON/NORTHERN IDAHO ROUNDUP
NATIONAL WEATHER SERVICE, SPOKANE WA
1000 AM PDT FRI MAR 27 2015

Note: "fair" indicated few or no clouds below 12,000 feet with no
significant weather and/or obstructions to visibility.

...NORTHEAST WASHINGTON AND NORTHERN IDAHO PANHANDLE...

CITY           SKY/WX    TMP DP  RH WIND       PRES   REMARKS
SPOKANE INTL   FOG       44  44 100 E7        30.10F VSB 1/8
SPOKANE DOWNTO CLOUDY    46  44  93 NE3       30.12F FOG
COEUR D ALENE  CLOUDY    46  45  93 NE12      30.13F
DEER PARK      SUNNY     50  46  86 N5        30.12F
SANDPOINT      MOSUNNY   45  45 100 SE5       30.15S
BONNERS FERRY  CLOUDY    45  45 100 E3        30.15S

...SOUTHEAST WASHINGTON AND SOUTHERN IDAHO PANHANDLE...

CITY           SKY/WX    TMP DP  RH WIND       PRES   REMARKS
WALLA WALLA    SUNNY     58  49  72 S6        30.06F
PULLMAN/MOSCOW SUNNY     58  46  64 E13       30.11F
LEWISTON       SUNNY     59  48  67 NE10      30.09F
LOWELL           N/A     52  42  69 N3        30.20F

...COLUMBIA BASIN...

CITY           SKY/WX    TMP DP  RH WIND       PRES   REMARKS
EPHRATA        SUNNY     56  47  71 N8        30.07F
MOSES LAKE     SUNNY     56  48  74 N7        30.08F
TRI CITIES     SUNNY     56  48  74 CALM      30.08S
HERMISTON      SUNNY     57  47  69 CALM      30.06F
PENDLETON      SUNNY     59  48  67 CALM      30.06F

...EAST SLOPES CASCADES...

CITY           SKY/WX    TMP DP  RH WIND       PRES   REMARKS
THE DALLES     SUNNY     54  49  83 CALM      30.07F
YAKIMA         SUNNY     60  46  59 NW3       30.07S
ELLENSBURG     SUNNY     52  46  80 S3        30.07F
WENATCHEE      SUNNY     53  43  68 W3        30.08F
OMAK           CLOUDY    52  45  77 S5        30.08F

...SOUTHERN BRITISH COLUMBIA...

CITY           SKY/WX    TMP DP  RH WIND       PRES   REMARKS
PENTICTON      CLOUDY    48  43  81 CALM      30.08F
CASTLEGAR      PTSUNNY   48  45  87 VRB2      30.14F
CRANBROOK      PTSUNNY   52  39  62 S5        30.11F

...WESTERN MONTANA...

CITY           SKY/WX    TMP DP  RH WIND       PRES   REMARKS
MISSOULA       MOSUNNY   43  40  89 CALM      30.20F

...NEIGHBORING CITIES...

CITY           SKY/WX    TMP DP  RH WIND       PRES   REMARKS
SEATTLE        PTSUNNY   54  50  86 S3        30.04S
CALGARY        PTSUNNY   54  27  35 SE6       29.91F



USA.gov is the U.S. government's official web portal to all federal, state and local government web resources and services.